Home   Weather   Liberec   Past weeks

Flag for Czech Republic Past Weather in Liberec, Czech Republic — Yesterday and Last 2 Weeks

Now
69 °F

Mild.


Feels Like: 69 °F
Forecast: 47 / 54 °F
Wind: 3 mph from Northwest

Location: Liberec

Current Time: May 23, 2017 at 6:59:52 pm

Latest Report: May 23, 2017 at 6:00 pm


Visibility: 13 mi

Pressure: 29.96 "Hg

Humidity: 44%

Dew Point: 46 °F

Location of LiberecLocation

Past Weather in Liberec — Graph

°F

Liberec Temperature Yesterday

Maximum temperature yesterday: 66 °F (at 6:00 pm)
Minimum temperature yesterday: 44 °F (at 4:00 am)
Average temperature yesterday: 56 °F

High & Low Weather Summary for the Past Weeks

 TemperatureHumidityPressure
High77 °F (May 19, 4:00 pm)99% (May 13, 5:00 am)30.46 "Hg (May 13, 5:00 am)
Low30 °F (May 9, 6:00 am)28% (May 11, 6:00 pm)29.59 "Hg (May 12, 5:00 am)
Average55 °F65%30.03 "Hg
* Reported May 8 5:00 pm — May 23 5:00 pm, Liberec. Weather by CustomWeather, © 2017

Note: Actual official high and low records may vary slightly from our data, if they occured in-between our weather recording intervals... More about our weather records

Advertising

Liberec Weather History for the Previous 24 Hours

Scroll right to see more
 ConditionsComfort  
Time TempWeatherWind HumidityBarometerVisibility
5:00 pm
Tue, May 23
68 °FPartly sunny.3 mph45%29.97 "Hg22 mi
4:00 pm71 °FPartly sunny.3 mph40%29.96 "Hg25 mi
3:00 pm69 °FPartly sunny.2 mph43%29.98 "Hg25 mi
2:00 pm67 °FPartly sunny.2 mph48%29.99 "Hg25 mi
1:00 pm70 °FScattered clouds.1 mph47%29.99 "Hg25 mi
12:00 pm69 °FScattered clouds.3 mph48%30.00 "Hg22 mi
11:00 am68 °FScattered clouds.1 mph47%30.01 "Hg19 mi
10:00 am66 °FScattered clouds.2 mph51%30.02 "Hg19 mi
9:00 am64 °FScattered clouds.1 mph55%30.03 "Hg17 mi
8:00 am59 °FScattered clouds.1 mph68%30.03 "Hg16 mi
7:00 am52 °FCool.No wind78%30.05 "Hg12 mi
6:00 am46 °FCool.1 mph89%30.06 "Hg11 mi
5:00 am46 °FCool.1 mph90%30.06 "Hg11 mi
4:00 am47 °FCool.1 mph88%30.06 "Hg12 mi
3:00 am47 °FFog.1 mph86%30.07 "Hg4 mi
2:00 am48 °FCool.1 mph86%30.08 "Hg12 mi
1:00 am48 °FCool.No wind85%30.09 "Hg12 mi
12:00 am49 °FCool.1 mph80%30.09 "Hg12 mi
11:00 pm
Mon, May 22
51 °FCool.1 mph74%30.08 "Hg12 mi
10:00 pm53 °FPassing clouds.1 mph74%30.08 "Hg17 mi
9:00 pm57 °FPassing clouds.1 mph62%30.07 "Hg19 mi
8:00 pm61 °FPassing clouds.2 mph54%30.06 "Hg22 mi
7:00 pm65 °FMild.2 mph47%30.04 "Hg12 mi
6:00 pm66 °FMild.2 mph46%30.05 "Hg12 mi
Weather by CustomWeather, © 2017

See weather overviewHow to use our weather pages